Temperature
16 16 16 16 16 16 16 16 16 16 16 15 15 15 15 15 15 15 15 15 15 15 15 15 15 15 15 15 15 15 15 15 15 15 15 15 15 15 15 15 15 15 15
16 16 16 16 16 16 16 16 16 15 15 15 15 15 15 15 15 15 15 15 15 15 15 15 15 15 15 14 15 15 15 15 15 15 15 15 15 15 15 15 15 15 15
16 16 16 16 16 16 16 15 15 15 15 15 15 15 15 15 15 15 15 15 15 14 14 14 14 14 14 14 14 14 15 15 15 15 14 14 14 14 14 14 14 14 14
16 16 16 16 16 15 15 15 15 15 15 15 15 15 15 15 15 15 15 15 15 14 14 14 14 14 14 14 14 14 14 14 14 14 14 14 14 14 14 14 14 14 14
16 16 16 16 16 15 15 15 15 15 15 15 15 15 14 15 14 14 14 14 14 14 14 14 14 14 14 14 14 14 14 14 14 14 14 14 14 14 14 14 14 14 14
16 16 16 16 15 15 15 15 15 15 15 15 15 14 14 14 14 14 14 14 14 14 14 14 14 14 14 14 14 13 13 13 13 13 13 13 13 13 13 13 13 13 13
16 16 16 15 15 15 15 15 15 15 15 15 15 14 14 14 14 14 14 14 14 14 14 14 14 14 14 14 13 13 13 13 13 13 13 13 13 13 13 13 13 13 13
15 15 15 15 15 15 15 15 15 15 14 14 14 14 14 14 14 14 14 14 14 14 14 14 13 14 13 13 13 13 13 13 12 13 13 13 13 13 13 13 13 13 13
15 15 15 15 15 15 15 15 15 15 14 14 14 14 14 13 13 13 13 13 13 13 13 13 13 13 13 13 13 13 13 12 12 12 12 12 12 12 12 12 12 12 12
15 15 15 15 15 15 15 14 14 14 14 14 14 14 14 13 13 13 13 13 13 13 13 13 13 13 13 13 13 13 12 12 12 12 12 12 12 12 12 12 12 12 12
15 15 15 15 15 14 14 14 14 14 14 14 14 14 14 13 13 13 12 12 12 12 12 12 12 12 12 12 12 12 12 12 12 12 12 12 12 12 11 11 11 11 11
15 15 15 15 14 14 14 14 14 14 14 14 13 13 13 13 13 13 12 12 12 12 12 12 12 12 12 12 12 12 12 12 12 12 11 11 11 11 11 11 11 11 11
15 15 15 14 14 14 14 14 14 14 13 13 13 13 13 13 13 13 13 12 12 12 12 12 12 12 12 12 12 11 11 11 11 11 11 11 11 11 11 11 11 11 11
15 15 14 14 14 14 14 14 14 13 13 13 13 13 13 13 13 13 12 12 12 11 11 11 11 11 11 11 11 11 11 11 11 11 11 11 11 11 11 11 11 10 10
14 14 14 14 14 14 14 13 13 13 13 13 13 13 13 13 12 12 12 12 12 11 11 11 11 11 11 11 11 11 11 11 11 11 11 11 11 11 10 10 10 10 10
14 14 14 14 14 14 13 13 13 13 13 13 13 13 12 12 12 12 12 12 11 11 11 11 11 11 10 10 10 10 10 10 10 10 10 10 10 10 10 10 10 10 10
14 14 14 14 14 13 13 13 13 13 12 12 12 12 12 12 12 12 11 11 11 11 11 11 10 10 10 10 10 10 10 10 10 10 10 10 10 10 10 10 10 10 10
14 14 14 14 13 13 13 13 13 12 12 12 12 12 12 12 11 11 11 11 11 11 11 10 10 10 10 10 10 10 10 10 10 10 10 10 9 9 9 9 9 9 9
14 13 13 13 13 13 13 12 12 12 12 12 12 12 11 11 11 11 11 11 11 10 10 10 10 10 10 10 10 10 9 9 9 9 9 9 9 9 9 9 9 9 9
13 13 13 13 13 13 12 12 12 12 12 12 11 11 11 11 11 11 10 10 10 10 10 10 10 10 9 9 9 9 9 9 9 9 9 9 9 9 9 9 8 8 8
13 13 13 13 13 12 12 12 12 12 12 11 11 11 11 11 10 10 10 10 10 10 10 9 9 9 9 9 9 9 9 9 9 9 9 9 8 8 8 8 8 8 8
13 13 13 12 12 12 12 12 12 11 11 11 11 11 11 10 10 10 10 10 10 9 9 9 9 9 9 9 9 8 8 8 8 8 8 8 8 8 8 8 8 8 8
13 13 13 12 12 12 12 12 11 11 11 11 11 11 10 10 10 10 10 10 9 9 9 9 9 9 9 9 8 8 8 8 8 8 7 8 8 8 8 8 8 7 7
12 12 12 12 12 12 12 11 11 11 11 11 10 10 10 10 10 10 9 9 9 9 9 9 9 8 8 8 8 8 7 7 7 7 7 7 8 8 7 7 7 7 7
12 12 12 12 12 12 11 11 11 11 11 10 10 10 10 10 10 9 9 9 9 9 9 9 8 8 8 8 8 7 7 7 7 7 7 7 7 7 7 7 7 7 7
12 12 12 11 11 11 11 11 11 10 10 10 10 10 10 9 9 9 9 9 9 9 9 8 8 8 8 8 8 7 7 7 7 6 7 6 6 6 6 7 7 6 6
Wind_Speed
2 3 4 5 5 5 5 5 6 6 6 7 7 7 7 7 8 9 8 11 12 12 12 11 11 11 12 12 12 12 13 12 11 11 11 11 11 10 10 10 9 8 8
3 3 3 4 4 5 5 6 6 5 5 5 6 6 6 6 8 8 9 10 12 13 12 11 11 11 11 11 12 12 12 12 11 11 10 10 10 10 10 10 10 9 9
4 4 3 3 3 5 7 7 6 6 5 5 5 5 5 6 7 8 8 8 9 11 13 12 11 11 11 11 11 11 11 11 11 10 10 10 10 9 10 10 10 9 9
5 4 3 2 4 6 6 4 4 4 4 4 4 3 4 5 6 7 7 8 8 9 11 13 12 11 11 10 10 10 10 10 10 9 9 10 10 10 10 9 9 9 10
4 4 3 3 5 5 4 4 3 3 4 3 3 4 4 4 5 6 6 7 8 8 9 10 12 12 11 10 9 10 10 10 10 9 9 10 10 9 9 10 10 9 9
4 4 4 4 5 4 3 3 4 3 3 3 4 4 4 3 4 5 5 6 7 8 8 9 9 10 12 11 9 9 9 9 9 9 9 9 9 9 9 9 9 9 9
5 4 3 3 3 3 3 4 4 4 3 2 3 3 4 4 4 4 4 5 6 7 8 9 8 8 8 11 11 9 8 8 8 8 8 7 7 8 8 8 8 9 9
4 4 4 3 3 4 4 3 3 3 1 2 2 2 2 4 4 4 4 4 4 6 7 7 8 8 8 8 9 10 9 7 6 7 7 6 7 7 7 7 7 7 7
4 4 4 4 3 3 3 2 3 3 2 1 2 3 2 1 1 3 4 4 4 4 4 6 7 7 7 7 7 8 9 8 7 6 6 6 6 6 5 5 5 6 6
4 4 4 4 3 3 3 2 2 2 3 1 1 1 1 3 2 1 3 3 4 3 3 4 5 6 6 6 6 7 7 7 7 6 7 7 7 6 5 5 5 5 6
3 3 4 4 3 2 2 2 2 2 2 2 2 1 2 2 2 2 1 2 3 3 2 3 3 5 5 5 5 5 6 6 7 7 7 7 7 7 6 6 6 6 6
1 2 3 3 3 2 2 2 2 2 2 2 2 2 2 2 2 2 2 1 1 2 2 2 3 3 4 5 4 5 5 5 6 6 6 7 8 8 7 7 7 7 6
1 0 2 2 2 3 3 3 3 2 2 2 2 1 1 1 2 2 3 2 1 1 2 2 2 3 3 4 4 5 4 5 5 5 5 6 6 7 7 7 6 6 6
2 2 2 2 3 3 4 4 3 2 2 2 2 2 1 1 2 2 3 3 1 1 1 2 2 2 2 3 4 4 4 4 4 4 5 5 5 5 6 6 6 6 6
2 3 3 3 3 3 4 4 3 2 3 2 2 2 1 1 1 1 2 3 3 2 2 2 2 2 2 2 3 3 3 3 3 3 4 4 4 4 4 5 5 5 5
2 3 3 2 2 3 3 3 2 2 3 2 1 2 2 1 1 1 2 1 2 3 2 2 2 1 1 2 3 3 2 3 3 2 3 3 3 3 3 4 5 4 4
3 3 3 3 3 3 3 3 2 2 2 1 1 2 1 2 2 1 1 1 1 2 2 1 1 1 1 1 3 3 3 3 3 2 2 2 3 3 3 3 4 4 4
3 3 3 3 3 3 3 3 3 2 2 2 1 2 1 2 2 1 1 1 1 2 2 2 1 1 1 1 1 2 3 3 3 3 2 2 2 3 3 2 3 3 3
3 3 3 4 3 3 3 3 3 3 3 3 3 3 2 3 2 1 1 1 1 1 1 2 1 1 1 0 1 2 2 3 3 3 3 3 3 3 3 3 3 3 3
3 3 3 3 3 3 3 3 3 3 2 2 2 3 3 4 4 3 2 2 2 2 2 1 1 1 1 1 0 1 2 2 2 3 4 4 4 4 4 4 4 3 2
3 3 3 2 2 3 3 4 4 3 3 2 1 2 3 4 4 4 3 3 3 2 2 1 1 1 1 1 2 1 2 2 2 1 2 3 3 3 4 5 4 3 3
2 2 3 3 3 2 3 6 5 4 3 3 2 2 2 2 3 4 4 5 5 4 4 3 2 3 4 3 2 2 1 0 2 2 1 3 2 3 4 4 5 4 3
3 3 3 3 3 4 5 5 6 4 4 4 4 3 2 2 1 1 2 2 3 5 6 5 4 5 5 5 4 3 3 3 3 2 0 2 2 3 5 6 5 4 4
3 3 4 4 4 4 5 5 5 4 3 4 4 5 4 3 3 3 2 2 3 3 5 5 5 6 6 5 6 4 4 2 1 2 2 2 2 2 4 6 5 4 4
3 4 4 4 5 5 6 6 5 3 3 4 4 4 4 5 6 4 3 3 2 3 4 6 6 6 6 5 5 3 2 1 2 2 1 1 2 2 3 3 5 5 4
4 4 4 4 5 5 6 7 6 3 3 3 3 4 6 6 7 6 5 5 4 4 2 2 2 3 3 4 5 5 5 3 2 2 2 2 1 1 2 2 3 4 5
Wind_Direction
88 75 68 66 67 74 80 79 77 73 68 64 64 64 55 50 42 40 34 42 48 51 56 62 67 68 68 70 75 77 74 74 74 75 75 75 76 75 73 72 71 67 64
104 99 83 73 72 79 86 88 88 82 70 67 59 56 54 50 44 41 36 36 41 43 49 56 65 68 69 72 73 75 72 71 71 73 74 74 73 73 72 67 63 60 60
108 107 99 87 89 94 92 87 82 82 74 65 53 47 51 49 47 43 37 34 34 37 42 49 58 64 66 68 70 73 72 70 69 67 70 68 67 68 67 65 60 57 58
115 107 103 94 99 100 97 91 83 80 71 66 57 39 41 42 42 42 40 36 34 33 35 40 47 55 60 62 64 70 72 73 71 67 67 67 65 64 64 63 59 56 56
110 111 111 111 110 102 97 104 87 94 91 79 70 50 38 38 39 42 40 36 36 35 34 34 40 46 51 55 59 65 69 70 68 66 67 66 63 60 59 59 57 54 53
108 111 110 114 115 105 95 98 97 82 92 92 80 60 45 40 44 40 38 41 39 38 38 36 35 35 42 46 53 61 65 67 65 64 62 62 62 60 58 55 52 51 50
114 112 111 111 112 114 117 113 107 92 79 91 83 56 35 41 46 36 35 40 37 36 41 39 36 36 36 40 44 53 59 62 63 59 57 57 58 58 57 53 52 50 48
125 126 122 119 114 112 104 106 112 106 82 66 102 94 33 12 20 28 26 37 29 34 37 38 36 35 35 37 39 46 49 51 56 57 55 53 54 53 53 51 50 48 46
121 120 127 124 116 116 124 126 131 129 134 51 73 127 133 198 340 2 21 29 23 27 25 33 34 31 33 36 39 45 45 44 48 48 49 50 47 45 45 46 48 46 47
108 118 123 121 119 115 121 135 120 126 136 145 60 61 126 153 149 5 353 6 17 24 13 25 26 24 26 33 44 48 48 44 43 45 48 45 39 40 44 48 51 51 52
76 101 120 118 122 120 123 117 108 108 129 146 149 128 92 76 110 150 247 332 357 353 354 5 18 20 20 24 40 46 46 45 44 42 40 38 35 40 46 52 59 55 52
46 73 106 114 122 127 131 131 124 121 118 115 124 137 150 152 165 154 181 221 294 315 339 1 9 14 18 24 33 38 41 46 46 43 38 36 32 38 45 51 51 47 43
123 134 121 125 127 136 132 126 117 115 119 118 125 137 147 158 155 150 154 181 223 307 335 340 351 12 18 26 27 29 39 51 47 43 37 34 31 35 41 42 40 37 33
184 163 138 128 125 122 119 119 109 118 106 111 109 113 118 133 138 152 160 157 156 327 337 306 328 1 10 27 22 35 39 48 46 40 36 36 35 36 36 34 33 30 27
166 144 138 131 122 122 123 120 109 113 108 108 110 114 109 108 123 137 145 157 161 184 256 277 296 332 357 27 19 36 29 30 30 25 31 36 35 34 30 23 26 23 21
158 143 137 129 124 117 113 114 111 110 109 102 115 108 101 103 97 106 128 122 140 163 204 242 246 288 352 23 20 25 12 7 12 15 18 22 21 23 24 21 21 18 13
159 154 154 141 136 131 128 124 123 121 121 111 107 121 117 119 110 98 99 104 111 131 177 260 278 310 21 8 11 13 3 354 340 340 350 2 357 355 357 3 11 13 7
158 160 153 145 147 144 145 146 152 144 147 154 159 140 147 132 120 130 126 121 150 152 164 200 262 308 278 308 344 350 346 341 321 318 319 323 326 340 340 335 343 350 354
156 148 152 160 165 163 160 162 161 159 167 177 176 170 182 153 158 166 159 157 161 141 146 163 215 242 282 314 356 334 341 335 326 316 313 316 316 319 325 328 324 323 334
161 164 168 175 178 172 169 168 159 160 165 175 183 185 191 186 190 185 183 183 154 126 125 141 195 247 266 278 161 281 319 327 317 327 325 319 314 317 321 322 313 308 305
174 173 167 174 175 177 183 174 170 168 169 173 193 208 213 207 202 192 193 184 162 157 155 171 206 233 254 234 235 225 262 306 303 313 338 328 322 315 313 314 306 302 302
171 161 175 184 194 210 194 178 172 178 180 183 203 231 240 220 219 218 211 193 179 177 186 190 210 223 239 228 214 213 209 290 294 297 331 309 320 300 300 300 295 294 290
179 183 196 197 215 229 207 192 184 182 191 201 205 209 229 226 195 203 223 221 219 216 202 193 206 226 226 216 194 204 210 208 236 251 173 283 304 295 295 298 295 289 294
193 206 213 213 221 236 221 209 195 184 202 214 213 207 210 219 215 199 195 212 238 246 231 213 215 231 229 210 192 195 200 208 268 267 184 240 282 289 306 302 299 298 303
210 218 220 216 220 238 229 214 195 187 209 226 226 217 213 218 229 209 185 206 249 273 258 236 237 248 257 240 190 146 157 167 261 265 206 203 264 293 299 294 295 301 299
217 220 227 225 225 232 231 217 200 188 209 228 234 232 228 227 230 214 197 200 228 249 243 260 276 285 269 249 219 195 190 194 214 250 219 190 228 296 307 294 298 304 302
Height
1550 1551 1551 1551 1552 1552 1552 1552 1552 1552 1552 1552 1552 1551 1550 1550 1549 1548 1548 1547 1547 1546 1545 1544 1543 1543 1542 1541 1540 1541 1542 1542 1543 1544 1544 1545 1545 1545 1545 1546 1546 1546 1546
1551 1552 1552 1553 1553 1553 1554 1554 1554 1553 1553 1553 1553 1553 1552 1552 1551 1550 1550 1549 1548 1547 1547 1546 1545 1545 1544 1543 1543 1543 1543 1544 1544 1544 1545 1545 1545 1545 1545 1546 1546 1546 1546
1552 1553 1553 1554 1554 1554 1555 1555 1555 1555 1554 1554 1554 1554 1553 1553 1553 1552 1551 1551 1550 1549 1548 1548 1547 1547 1546 1546 1545 1545 1545 1545 1545 1545 1545 1545 1545 1545 1546 1546 1546 1546 1546
1552 1553 1554 1554 1555 1555 1555 1555 1556 1555 1555 1555 1555 1555 1555 1554 1554 1554 1553 1552 1552 1551 1550 1549 1549 1548 1548 1547 1547 1546 1546 1546 1546 1546 1546 1546 1546 1546 1546 1545 1545 1545 1545
1553 1553 1554 1555 1555 1556 1556 1556 1556 1556 1556 1556 1556 1556 1555 1555 1555 1555 1554 1554 1553 1552 1552 1551 1550 1550 1549 1549 1548 1548 1547 1547 1547 1547 1546 1546 1546 1546 1545 1545 1545 1545 1545
1553 1554 1554 1555 1555 1556 1556 1556 1557 1557 1557 1557 1556 1556 1556 1556 1556 1555 1555 1555 1554 1553 1553 1552 1552 1551 1550 1550 1549 1549 1548 1548 1548 1547 1547 1546 1546 1546 1545 1545 1545 1545 1544
1553 1554 1554 1555 1555 1556 1556 1557 1557 1557 1557 1557 1557 1556 1556 1556 1556 1556 1556 1555 1555 1554 1554 1553 1552 1552 1551 1551 1550 1550 1549 1549 1548 1547 1547 1546 1546 1545 1545 1544 1544 1544 1544
1553 1554 1554 1555 1555 1556 1556 1556 1556 1556 1557 1557 1557 1556 1557 1558 1556 1556 1556 1556 1555 1555 1554 1553 1553 1552 1551 1551 1550 1550 1549 1549 1548 1547 1546 1546 1545 1544 1544 1543 1543 1543 1543
1553 1553 1554 1554 1555 1556 1556 1556 1556 1556 1556 1557 1557 1557 1557 1556 1557 1557 1556 1556 1556 1555 1554 1554 1553 1552 1552 1551 1550 1550 1549 1549 1548 1547 1546 1545 1544 1542 1542 1541 1541 1541 1542
1552 1553 1553 1554 1554 1555 1555 1555 1556 1556 1556 1556 1556 1556 1557 1556 1556 1556 1557 1556 1556 1555 1554 1554 1553 1553 1552 1551 1550 1550 1549 1549 1548 1547 1546 1544 1542 1540 1538 1538 1539 1540 1540
1552 1552 1553 1553 1553 1554 1554 1554 1555 1555 1555 1555 1555 1555 1555 1556 1555 1555 1555 1556 1555 1555 1554 1554 1553 1553 1552 1551 1550 1550 1549 1548 1547 1546 1545 1543 1540 1538 1537 1536 1537 1539 1540
1551 1552 1552 1552 1552 1553 1553 1553 1554 1554 1554 1554 1554 1554 1554 1554 1554 1554 1554 1554 1554 1554 1554 1553 1553 1552 1552 1551 1550 1549 1549 1548 1546 1545 1544 1543 1540 1538 1536 1536 1537 1539 1539
1550 1550 1551 1551 1551 1552 1552 1553 1553 1553 1553 1553 1553 1553 1553 1553 1553 1553 1553 1552 1552 1552 1552 1552 1552 1552 1551 1550 1550 1549 1548 1547 1546 1545 1544 1542 1541 1540 1538 1538 1538 1538 1538
1549 1550 1550 1551 1551 1551 1551 1551 1552 1552 1551 1551 1551 1552 1552 1552 1551 1551 1552 1551 1551 1551 1551 1551 1551 1550 1550 1549 1549 1548 1547 1546 1545 1544 1543 1542 1541 1540 1539 1538 1538 1537 1537
1548 1549 1549 1550 1550 1550 1550 1550 1550 1550 1550 1550 1550 1550 1550 1550 1550 1550 1550 1550 1550 1549 1549 1549 1549 1549 1549 1548 1548 1547 1546 1545 1544 1543 1542 1541 1540 1539 1539 1538 1537 1537 1536
1547 1547 1548 1548 1549 1549 1549 1549 1549 1549 1549 1549 1549 1548 1548 1548 1548 1548 1548 1548 1548 1548 1548 1548 1548 1548 1547 1547 1546 1546 1545 1544 1543 1542 1541 1540 1539 1539 1538 1537 1536 1535 1534
1545 1546 1546 1547 1547 1547 1547 1547 1547 1547 1547 1547 1547 1547 1547 1547 1547 1547 1547 1547 1547 1547 1546 1546 1546 1546 1545 1545 1544 1544 1543 1543 1542 1541 1540 1539 1538 1537 1537 1536 1535 1534 1533
1544 1544 1545 1545 1545 1546 1546 1546 1546 1545 1545 1545 1545 1545 1545 1545 1545 1545 1545 1545 1545 1545 1545 1544 1544 1544 1543 1543 1542 1542 1541 1541 1540 1539 1538 1537 1537 1536 1535 1534 1533 1532 1531
1542 1542 1543 1543 1543 1544 1544 1544 1544 1544 1543 1543 1543 1543 1543 1543 1543 1543 1543 1543 1543 1543 1543 1543 1542 1542 1541 1541 1540 1540 1539 1539 1538 1537 1536 1535 1535 1534 1533 1533 1532 1531 1529
1540 1540 1541 1541 1541 1541 1542 1542 1542 1541 1541 1541 1541 1541 1541 1541 1541 1541 1541 1541 1541 1541 1541 1541 1540 1539 1539 1538 1538 1537 1536 1536 1535 1535 1534 1533 1533 1532 1531 1530 1529 1528 1527
1537 1538 1539 1539 1539 1539 1539 1539 1539 1539 1539 1539 1539 1539 1539 1539 1539 1539 1539 1539 1539 1539 1538 1538 1538 1537 1536 1536 1535 1534 1534 1533 1533 1532 1531 1531 1530 1529 1529 1528 1527 1526 1525
1535 1536 1536 1536 1537 1537 1537 1537 1537 1537 1537 1537 1537 1537 1537 1537 1537 1537 1537 1537 1537 1536 1536 1535 1535 1534 1534 1533 1532 1532 1531 1530 1529 1530 1528 1528 1527 1526 1526 1525 1524 1524 1523
1532 1533 1533 1534 1534 1534 1534 1534 1534 1534 1534 1534 1534 1534 1534 1534 1534 1534 1534 1534 1534 1534 1534 1533 1532 1532 1531 1531 1530 1529 1529 1528 1527 1526 1525 1524 1524 1523 1523 1522 1521 1521 1520
1529 1530 1530 1531 1531 1531 1532 1532 1532 1532 1531 1531 1531 1531 1531 1531 1531 1531 1531 1531 1531 1530 1530 1530 1530 1529 1529 1528 1527 1527 1526 1525 1525 1524 1523 1521 1521 1520 1520 1519 1518 1517 1517
1526 1526 1527 1527 1527 1528 1528 1528 1528 1528 1528 1528 1528 1528 1528 1528 1528 1528 1528 1527 1527 1527 1527 1527 1526 1526 1525 1525 1524 1523 1522 1522 1520 1520 1520 1519 1517 1517 1516 1516 1515 1514 1513
1522 1522 1522 1523 1523 1524 1524 1524 1524 1524 1524 1524 1524 1524 1524 1524 1524 1524 1524 1524 1523 1523 1523 1523 1523 1522 1521 1521 1520 1519 1519 1518 1517 1516 1516 1515 1514 1514 1512 1512 1511 1511 1510